Kekaha, HI

9:17 PM HST on January 17, 2017 (GMT -1000)
Barking Sands PMRF

Weather History for PHBK - May, 2013

Change the Weather History Date:

Tuesday, May 21, 2013

  Actual Average Record
Temperature  
Mean Temperature 74 °F -  
Max Temperature 80 °F 86 °F 90 °F (1956)
Min Temperature 69 °F 65 °F 62 °F (1958)
Cooling Degree Days 10    
Growing Degree Days 24 (Base 50)    
Moisture  
Dew Point 61 °F    
Average Humidity 64    
Maximum Humidity 73    
Minimum Humidity 50    
Precipitation  
Precipitation 0.00 in - - ()
Sea Level Pressure  
Sea Level Pressure 29.97 in    
Wind  
Wind Speed 5 mph (NE)    
Max Wind Speed 12 mph    
Max Gust Speed -    
Visibility 10 miles    
Events      
Averages and records for this station are not official NWS values.
T = Trace of Precipitation, MM = Missing Value Source: NWS Daily Summary

Daily Weather History Graph

Daily Weather History Graph

Search for Another Location

Airport or City:

Trip Planner

Search our weather history database for the weather conditions in past years. The results will help you decide how hot, cold, wet, or windy it might be!

Date:

Astronomy

May. 21, 2013 Rise Set
Actual Time 5:57 AM HST 7:14 PM HST
Civil Twilight 5:33 AM HST 7:38 PM HST
Nautical Twilight 5:04 AM HST 8:07 PM HST
Astronomical Twilight 4:34 AM HST 8:37 PM HST
Moon 4:02 PM HST (5/21) 3:06 AM HST (5/21)
Length of Visible Light 14h 05m
Length of Day
13h 17m
Waxing Gibbous, 86% of the Moon is Illuminated
May 21
Waxing Gibbous
May 24
Full
May 31
Last Quarter
Jun 8
New
Jun 16
First Quarter

Hourly Weather History & Observations

Time (HST) Temp. Heat Index Dew Point Humidity Pressure Visibility Wind Dir Wind Speed Gust Speed Precip Events Conditions
12:56 AM 70.0 °F - 57.9 °F 65% 29.96 in 10.0 mi East 5.8 mph - N/A   Overcast
1:56 AM 70.0 °F - 60.1 °F 71% 29.95 in 10.0 mi Calm Calm - N/A   Overcast
2:56 AM 70.0 °F - 59.0 °F 68% 29.95 in 10.0 mi Calm Calm - N/A   Mostly Cloudy
3:56 AM 70.0 °F - 59.0 °F 68% 29.94 in 10.0 mi East 5.8 mph - N/A   Overcast
4:56 AM 70.0 °F - 60.1 °F 71% 29.95 in 10.0 mi Calm Calm - N/A   Overcast
5:56 AM 69.1 °F - 60.1 °F 73% 29.97 in 10.0 mi East 4.6 mph - N/A   Clear
6:56 AM 72.0 °F - 60.1 °F 66% 29.98 in 10.0 mi East 3.5 mph - N/A   Mostly Cloudy
7:56 AM 73.0 °F - 62.1 °F 68% 30.00 in 10.0 mi SSE 6.9 mph - N/A   Mostly Cloudy
8:56 AM 75.0 °F - 62.1 °F 64% 30.00 in 10.0 mi SSE 4.6 mph - N/A   Partly Cloudy
9:56 AM 77.0 °F - 63.0 °F 62% 30.01 in 10.0 mi SW 8.1 mph - N/A   Partly Cloudy
10:56 AM 77.0 °F - 62.1 °F 60% 30.01 in 10.0 mi WSW 5.8 mph - N/A   Mostly Cloudy
11:56 AM 77.0 °F - 62.1 °F 60% 30.00 in 10.0 mi West 5.8 mph - N/A   Scattered Clouds
12:56 PM 77.0 °F - 62.1 °F 60% 29.99 in 10.0 mi West 5.8 mph - N/A   Overcast
1:56 PM 78.1 °F - 62.1 °F 58% 29.97 in 10.0 mi West 4.6 mph - N/A   Overcast
2:56 PM 80.1 °F 81.2 °F 62.1 °F 54% 29.95 in 10.0 mi NNW 6.9 mph - N/A   Mostly Cloudy
3:56 PM 79.0 °F - 63.0 °F 58% 29.94 in 10.0 mi NNW 8.1 mph - N/A   Mostly Cloudy
4:56 PM 79.0 °F - 63.0 °F 58% 29.93 in 10.0 mi NNW 11.5 mph - N/A   Partly Cloudy
5:56 PM 79.0 °F - 59.0 °F 50% 29.94 in 10.0 mi NNW 8.1 mph - N/A   Mostly Cloudy
6:56 PM 77.0 °F - 61.0 °F 58% 29.96 in 10.0 mi North 8.1 mph - N/A   Scattered Clouds
7:56 PM 75.0 °F - 61.0 °F 62% 29.98 in 10.0 mi Calm Calm - N/A   Clear
8:56 PM 72.0 °F - 60.1 °F 66% 29.99 in 10.0 mi East 4.6 mph - N/A   Clear
9:56 PM 71.1 °F - 62.1 °F 73% 30.01 in 10.0 mi ENE 3.5 mph - N/A   Scattered Clouds
10:56 PM 71.1 °F - 61.0 °F 70% 30.01 in 10.0 mi East 4.6 mph - N/A   Partly Cloudy
11:56 PM 70.0 °F - 61.0 °F 73% 29.99 in 10.0 mi East 4.6 mph - N/A   Clear